Overview Statistics Trail Chart Weather Telemetry Raw packets
 

This is the latest recevied weather packets stored in our database for station/object OK2ILA-10. If no packets are shown the sender has not sent any weather packets the latest 10 day(s).

<< 16 17 18 19 20 21 22 >>
Time Temp. Humidity Pressure Rain* Wind** Luminosity Snow
1788539525 25° C 49% 1012.7 hPa - - - -
1788538929 25.56° C 49% 1012.7 hPa - - - -
1788538925 25.56° C 49% 1012.7 hPa - - - -
1788538329 25.56° C 48% 1012.8 hPa - - - -
1788538325 25.56° C 48% 1012.8 hPa - - - -
1788537725 26.11° C 47% 1013 hPa - - - -
1788537129 26.11° C 48% 1013.1 hPa - - - -
1788537125 26.11° C 48% 1013.1 hPa - - - -
1788536524 26.11° C 48% 1013.2 hPa - - - -
1788535928 26.11° C 48% 1013.4 hPa - - - -
1788535924 26.11° C 48% 1013.4 hPa - - - -
1788535324 26.11° C 48% 1013.6 hPa - - - -
1788534728 26.67° C 48% 1013.7 hPa - - - -
1788534724 26.67° C 48% 1013.7 hPa - - - -
1788534128 26.67° C 48% 1014 hPa - - - -
1788534124 26.67° C 48% 1014 hPa - - - -
1788533528 26.11° C 48% 1014.2 hPa - - - -
1788533523 26.11° C 48% 1014.2 hPa - - - -
1788532923 26.11° C 48% 1014.2 hPa - - - -
1788532327 26.11° C 49% 1014.4 hPa - - - -
1788532323 26.11° C 49% 1014.4 hPa - - - -
1788531727 26.11° C 49% 1014.6 hPa - - - -
1788531723 26.11° C 49% 1014.6 hPa - - - -
1788531127 25.56° C 50% 1014.7 hPa - - - -
1788531123 25.56° C 50% 1014.7 hPa - - - -

* Rain since midnight (hover to see other rain measurements)
** Current wind speed in m/s (hover to see current wind gust speed)